TimeCST,TemperatureF,Dew PointF,Humidity,Sea Level PressureIn,VisibilityMPH,Wind Direction,Wind SpeedMPH,Gust SpeedMPH,PrecipitationIn,Events,Conditions,WindDirDegrees,DateUTC
12:15 AM,42.8,28.4,57,30.14,10.0,SSW,10.4,-,N/A,,Clear,210,2013-12-16 06:15:00
12:35 AM,41.0,28.4,61,30.14,10.0,SSW,9.2,-,N/A,,Clear,200,2013-12-16 06:35:00
12:55 AM,39.2,26.6,61,30.13,10.0,South,8.1,-,N/A,,Clear,190,2013-12-16 06:55:00
1:15 AM,39.2,26.6,61,30.13,10.0,South,8.1,-,N/A,,Clear,190,2013-12-16 07:15:00
1:35 AM,37.4,26.6,65,30.13,10.0,South,8.1,-,N/A,,Clear,190,2013-12-16 07:35:00
1:55 AM,37.4,26.6,65,30.13,10.0,SSW,6.9,-,N/A,,Clear,200,2013-12-16 07:55:00
2:15 AM,37.4,26.6,65,30.13,10.0,SSW,8.1,-,N/A,,Clear,200,2013-12-16 08:15:00
2:35 AM,39.2,26.6,61,30.13,10.0,SSW,9.2,-,N/A,,Clear,200,2013-12-16 08:35:00
2:55 AM,37.4,26.6,65,30.13,10.0,SSW,8.1,-,N/A,,Clear,200,2013-12-16 08:55:00
3:15 AM,37.4,26.6,65,30.13,10.0,SSW,6.9,-,N/A,,Clear,210,2013-12-16 09:15:00
3:35 AM,37.4,26.6,65,30.13,10.0,SSW,6.9,-,N/A,,Clear,200,2013-12-16 09:35:00
3:55 AM,37.4,26.6,65,30.13,10.0,SSW,8.1,-,N/A,,Clear,200,2013-12-16 09:55:00
4:15 AM,37.4,26.6,65,30.13,10.0,SSW,6.9,-,N/A,,Clear,200,2013-12-16 10:15:00
4:35 AM,37.4,24.8,60,30.13,10.0,SSW,6.9,-,N/A,,Clear,210,2013-12-16 10:35:00
4:55 AM,39.2,26.6,61,30.12,10.0,SSW,9.2,-,N/A,,Clear,200,2013-12-16 10:55:00
5:15 AM,39.2,26.6,61,30.12,10.0,South,8.1,-,N/A,,Clear,190,2013-12-16 11:15:00
5:35 AM,37.4,26.6,65,30.12,10.0,South,8.1,-,N/A,,Clear,180,2013-12-16 11:35:00
5:55 AM,37.4,26.6,65,30.12,10.0,South,8.1,-,N/A,,Clear,180,2013-12-16 11:55:00
6:15 AM,35.6,24.8,65,30.12,10.0,SSW,8.1,-,N/A,,Clear,200,2013-12-16 12:15:00
6:35 AM,35.6,24.8,65,30.13,10.0,SSW,6.9,-,N/A,,Clear,200,2013-12-16 12:35:00
6:55 AM,35.6,24.8,65,30.13,10.0,SSW,6.9,-,N/A,,Clear,200,2013-12-16 12:55:00
7:15 AM,35.6,24.8,65,30.13,10.0,SSW,6.9,-,N/A,,Clear,200,2013-12-16 13:15:00
7:35 AM,35.6,24.8,65,30.14,10.0,SSW,8.1,-,N/A,,Clear,200,2013-12-16 13:35:00
7:55 AM,37.4,26.6,65,30.14,10.0,South,8.1,-,N/A,,Clear,190,2013-12-16 13:55:00
8:15 AM,37.4,26.6,65,30.15,10.0,South,8.1,-,N/A,,Clear,190,2013-12-16 14:15:00
8:35 AM,39.2,28.4,65,30.15,10.0,SSW,5.8,-,N/A,,Clear,200,2013-12-16 14:35:00
8:55 AM,42.8,28.4,57,30.15,10.0,SSW,10.4,-,N/A,,Clear,200,2013-12-16 14:55:00
9:15 AM,44.6,30.2,57,30.16,10.0,SSW,12.7,-,N/A,,Clear,210,2013-12-16 15:15:00
9:35 AM,46.4,30.2,53,30.15,10.0,SSW,13.8,-,N/A,,Clear,200,2013-12-16 15:35:00
9:55 AM,48.2,30.2,50,30.16,10.0,SSW,13.8,-,N/A,,Clear,200,2013-12-16 15:55:00
10:15 AM,48.2,30.2,50,30.16,10.0,SSW,12.7,-,N/A,,Clear,210,2013-12-16 16:15:00
10:35 AM,50.0,30.2,47,30.16,10.0,SSW,11.5,-,N/A,,Clear,210,2013-12-16 16:35:00
10:55 AM,51.8,32.0,47,30.16,10.0,SW,10.4,-,N/A,,Clear,230,2013-12-16 16:55:00
11:15 AM,53.6,32.0,44,30.15,10.0,SSW,9.2,-,N/A,,Clear,200,2013-12-16 17:15:00
11:35 AM,53.6,32.0,44,30.14,10.0,SSW,9.2,-,N/A,,Clear,200,2013-12-16 17:35:00
11:55 AM,55.4,32.0,41,30.13,10.0,South,11.5,-,N/A,,Clear,190,2013-12-16 17:55:00
12:15 PM,55.4,33.8,44,30.11,10.0,SSW,10.4,-,N/A,,Clear,200,2013-12-16 18:15:00
12:35 PM,57.2,33.8,41,30.10,10.0,SSW,9.2,-,N/A,,Clear,200,2013-12-16 18:35:00
12:55 PM,59.0,33.8,39,30.09,10.0,South,12.7,-,N/A,,Clear,190,2013-12-16 18:55:00
1:15 PM,59.0,33.8,39,30.09,10.0,SSW,11.5,-,N/A,,Clear,210,2013-12-16 19:15:00
1:35 PM,60.8,33.8,36,30.08,10.0,SSW,11.5,-,N/A,,Clear,200,2013-12-16 19:35:00
1:55 PM,60.8,33.8,36,30.08,10.0,SW,11.5,-,N/A,,Clear,220,2013-12-16 19:55:00
2:15 PM,60.8,33.8,36,30.09,10.0,SW,10.4,-,N/A,,Clear,220,2013-12-16 20:15:00
2:35 PM,62.6,33.8,34,30.09,10.0,SSW,13.8,-,N/A,,Clear,210,2013-12-16 20:35:00
2:55 PM,62.6,33.8,34,30.09,10.0,SW,10.4,-,N/A,,Clear,220,2013-12-16 20:55:00
3:15 PM,62.6,33.8,34,30.09,10.0,SSW,13.8,-,N/A,,Clear,210,2013-12-16 21:15:00
3:35 PM,60.8,33.8,36,30.09,10.0,South,12.7,-,N/A,,Clear,190,2013-12-16 21:35:00
3:55 PM,60.8,32.0,34,30.09,10.0,SSW,10.4,-,N/A,,Clear,210,2013-12-16 21:55:00
4:15 PM,57.2,32.0,38,30.10,10.0,SSW,11.5,-,N/A,,Clear,200,2013-12-16 22:15:00
4:35 PM,57.2,30.2,36,30.09,10.0,SSW,11.5,-,N/A,,Clear,200,2013-12-16 22:35:00
4:55 PM,53.6,30.2,41,30.10,10.0,SSW,8.1,-,N/A,,Clear,200,2013-12-16 22:55:00
5:15 PM,53.6,28.4,38,30.10,10.0,South,5.8,-,N/A,,Clear,190,2013-12-16 23:15:00
5:35 PM,51.8,28.4,41,30.10,10.0,SW,3.5,-,N/A,,Clear,220,2013-12-16 23:35:00
5:55 PM,51.8,28.4,41,30.11,10.0,South,4.6,-,N/A,,Clear,190,2013-12-16 23:55:00
6:15 PM,51.8,30.2,44,30.11,10.0,South,3.5,-,N/A,,Clear,190,2013-12-17 00:15:00
6:35 PM,51.8,30.2,44,30.11,10.0,South,3.5,-,N/A,,Clear,190,2013-12-17 00:35:00
6:55 PM,51.8,30.2,44,30.11,10.0,SSW,3.5,-,N/A,,Clear,210,2013-12-17 00:55:00
7:15 PM,50.0,30.2,47,30.12,10.0,Calm,Calm,-,N/A,,Clear,0,2013-12-17 01:15:00
7:35 PM,50.0,30.2,47,30.13,10.0,South,3.5,-,N/A,,Clear,180,2013-12-17 01:35:00
7:55 PM,48.2,28.4,46,30.13,10.0,South,6.9,-,N/A,,Clear,180,2013-12-17 01:55:00
8:15 PM,46.4,28.4,50,30.13,10.0,South,5.8,-,N/A,,Clear,190,2013-12-17 02:15:00
8:35 PM,46.4,28.4,50,30.13,10.0,South,5.8,-,N/A,,Clear,180,2013-12-17 02:35:00
8:55 PM,46.4,28.4,50,30.13,10.0,SSW,5.8,-,N/A,,Clear,200,2013-12-17 02:55:00
9:15 PM,44.6,28.4,53,30.13,10.0,SSW,6.9,-,N/A,,Clear,200,2013-12-17 03:15:00
9:35 PM,46.4,28.4,50,30.14,10.0,South,6.9,-,N/A,,Clear,190,2013-12-17 03:35:00
9:55 PM,44.6,28.4,53,30.14,10.0,South,8.1,-,N/A,,Clear,190,2013-12-17 03:55:00
10:15 PM,42.8,28.4,57,30.15,10.0,SSW,8.1,-,N/A,,Clear,200,2013-12-17 04:15:00
10:35 PM,44.6,30.2,57,30.15,10.0,SW,10.4,-,N/A,,Clear,220,2013-12-17 04:35:00
10:55 PM,44.6,30.2,57,30.16,10.0,SW,8.1,-,N/A,,Clear,220,2013-12-17 04:55:00
11:15 PM,44.6,30.2,57,30.16,10.0,SW,9.2,-,N/A,,Clear,220,2013-12-17 05:15:00
11:55 PM,44.6,30.2,57,30.16,10.0,SW,8.1,-,N/A,,Clear,220,2013-12-17 05:55:00